When you browse on this site, cookies collect data to enhance your experience and personalize the content and advertising you see.
Visit our Privacy Policy to learn more. By continuing to use the site, you agree to this use of cookies and data.
  • In Schweiz
  • Länderverzeichnis
  • Für 7 Tage
  • Wassertemperatur
  • Wetterkarte
  • Widgets
  • user-avatar
    Anmelden

    Stündliche Wetter Mieleszyn

    Heute, 15 September, Sonntag

    Zeit Temperatur Niederschläge Wind Luftdruck Luftfeuchtigkeit
    00:00 +12°C° 0 mm 1 m/S 755 mmHg 65%
    01:00 +10°C° 0 mm 2 m/S 754 mmHg 67%
    02:00 +10°C° 0 mm 2 m/S 754 mmHg 70%
    03:00 +10°C° 0 mm 2 m/S 753 mmHg 72%
    04:00 +10°C° 0 mm 3 m/S 753 mmHg 74%
    05:00 +10°C° 0 mm 3 m/S 752 mmHg 72%
    06:00 +11°C° 0 mm 4 m/S 752 mmHg 69%
    07:00 +12°C° 0 mm 4 m/S 751 mmHg 67%
    08:00 +14°C° 0 mm 5 m/S 751 mmHg 61%
    09:00 +16°C° 0 mm 5 m/S 751 mmHg 56%
    10:00 +19°C° 0 mm 5 m/S 750 mmHg 50%
    11:00 +20°C° 0 mm 5 m/S 750 mmHg 49%
    12:00 +21°C° 0 mm 6 m/S 749 mmHg 48%
    13:00 +23°C° 0 mm 6 m/S 748 mmHg 48%
    14:00 +22°C° 0 mm 6 m/S 748 mmHg 50%
    15:00 +22°C° 0 mm 5 m/S 747 mmHg 52%
    16:00 +22°C° 0 mm 5 m/S 747 mmHg 54%
    17:00 +21°C° 0 mm 5 m/S 747 mmHg 59%
    18:00 +20°C° 0 mm 4 m/S 747 mmHg 63%
    19:00 +18°C° 0 mm 4 m/S 747 mmHg 68%
    20:00 +17°C° 0 mm 4 m/S 747 mmHg 67%
    21:00 +17°C° 0 mm 4 m/S 746 mmHg 67%
    22:00 +16°C° 0 mm 3 m/S 746 mmHg 67%
    23:00 +14°C° 0 mm 3 m/S 746 mmHg 66%

    Morgen, 16 September, Montag

    Zeit Temperatur Niederschläge Wind Luftdruck Luftfeuchtigkeit
    00:00 +14°C° 0 mm 3 m/S 746 mmHg 66%
    01:00 +13°C° 0 mm 3 m/S 746 mmHg 65%
    02:00 +13°C° 0 mm 3 m/S 746 mmHg 65%
    03:00 +13°C° 0 mm 3 m/S 746 mmHg 65%
    04:00 +13°C° 0 mm 4 m/S 746 mmHg 65%
    05:00 +13°C° 0 mm 4 m/S 746 mmHg 67%
    06:00 +13°C° 0 mm 4 m/S 745 mmHg 69%
    07:00 +13°C° 0 mm 4 m/S 745 mmHg 72%
    08:00 +13°C° 0.2 mm 4 m/S 745 mmHg 76%
    09:00 +13°C° 0.2 mm 3 m/S 745 mmHg 80%
    10:00 +13°C° 0.2 mm 3 m/S 746 mmHg 83%
    11:00 +13°C° 0.1 mm 3 m/S 745 mmHg 84%
    12:00 +13°C° 0.1 mm 3 m/S 745 mmHg 85%
    13:00 +13°C° 0.1 mm 3 m/S 744 mmHg 85%
    14:00 +13°C° 0.2 mm 3 m/S 744 mmHg 87%
    15:00 +12°C° 0.2 mm 3 m/S 744 mmHg 88%
    16:00 +12°C° 0.2 mm 3 m/S 744 mmHg 89%
    17:00 +12°C° 0.8 mm 3 m/S 744 mmHg 91%
    18:00 +12°C° 0.8 mm 3 m/S 743 mmHg 92%
    19:00 +12°C° 0.8 mm 3 m/S 743 mmHg 94%
    20:00 +11°C° 0.7 mm 3 m/S 743 mmHg 93%
    21:00 +11°C° 0.7 mm 4 m/S 743 mmHg 92%
    22:00 +11°C° 0.7 mm 4 m/S 743 mmHg 91%
    23:00 +11°C° 0.1 mm 4 m/S 743 mmHg 91%

    übermorgen, 17 September, Dienstag

    Zeit Temperatur Niederschläge Wind Luftdruck Luftfeuchtigkeit
    00:00 +11°C° 0.1 mm 4 m/S 743 mmHg 90%
    01:00 +11°C° 0.1 mm 4 m/S 743 mmHg 90%
    02:00 +10°C° 0 mm 4 m/S 743 mmHg 87%
    03:00 +10°C° 0 mm 4 m/S 743 mmHg 85%
    04:00 +10°C° 0 mm 4 m/S 743 mmHg 83%
    05:00 +10°C° 0 mm 4 m/S 743 mmHg 81%
    06:00 +9°C° 0 mm 5 m/S 743 mmHg 79%
    07:00 +9°C° 0 mm 5 m/S 743 mmHg 76%
    08:00 +10°C° 0 mm 6 m/S 743 mmHg 71%
    09:00 +11°C° 0 mm 7 m/S 743 mmHg 65%
    10:00 +12°C° 0 mm 7 m/S 743 mmHg 60%
    11:00 +12°C° 0.1 mm 8 m/S 743 mmHg 59%
    12:00 +13°C° 0.1 mm 8 m/S 742 mmHg 57%
    13:00 +13°C° 0.1 mm 9 m/S 742 mmHg 56%
    14:00 +12°C° 0.1 mm 8 m/S 742 mmHg 58%
    15:00 +12°C° 0.1 mm 8 m/S 742 mmHg 61%
    16:00 +11°C° 0.1 mm 8 m/S 741 mmHg 64%
    17:00 +11°C° 0.3 mm 7 m/S 742 mmHg 68%
    18:00 +10°C° 0.3 mm 7 m/S 742 mmHg 72%
    19:00 +9°C° 0.3 mm 7 m/S 742 mmHg 75%
    20:00 +8°C° 0 mm 7 m/S 742 mmHg 77%
    21:00 +8°C° 0 mm 7 m/S 743 mmHg 78%
    22:00 +6°C° 0 mm 7 m/S 743 mmHg 80%
    23:00 +6°C° 0 mm 7 m/S 743 mmHg 80%

    18 September, Mittwoch

    Zeit Temperatur Niederschläge Wind Luftdruck Luftfeuchtigkeit
    00:00 +6°C° 0 mm 7 m/S 743 mmHg 80%
    01:00 +5°C° 0 mm 7 m/S 743 mmHg 80%
    02:00 +5°C° 0 mm 7 m/S 744 mmHg 81%
    03:00 +5°C° 0 mm 7 m/S 744 mmHg 81%
    04:00 +4°C° 0 mm 7 m/S 744 mmHg 82%
    05:00 +5°C° 0 mm 7 m/S 745 mmHg 81%
    06:00 +5°C° 0 mm 7 m/S 745 mmHg 79%
    07:00 +5°C° 0 mm 7 m/S 746 mmHg 78%
    08:00 +8°C° 0 mm 7 m/S 746 mmHg 72%
    09:00 +9°C° 0 mm 7 m/S 747 mmHg 67%
    10:00 +11°C° 0 mm 7 m/S 747 mmHg 61%
    11:00 +11°C° 0 mm 7 m/S 747 mmHg 57%
    12:00 +13°C° 0 mm 6 m/S 747 mmHg 54%
    13:00 +14°C° 0 mm 6 m/S 747 mmHg 50%
    14:00 +14°C° 0.2 mm 6 m/S 747 mmHg 51%
    15:00 +13°C° 0.2 mm 6 m/S 746 mmHg 52%
    16:00 +13°C° 0.2 mm 6 m/S 746 mmHg 53%
    17:00 +12°C° 0 mm 5 m/S 747 mmHg 59%
    18:00 +10°C° 0 mm 4 m/S 747 mmHg 64%
    19:00 +9°C° 0 mm 3 m/S 747 mmHg 69%
    20:00 +9°C° 0 mm 3 m/S 747 mmHg 71%
    21:00 +8°C° 0 mm 3 m/S 747 mmHg 73%
    22:00 +8°C° 0 mm 3 m/S 748 mmHg 74%
    23:00 +7°C° 0 mm 3 m/S 748 mmHg 76%

    19 September, Donnerstag

    Zeit Temperatur Niederschläge Wind Luftdruck Luftfeuchtigkeit
    00:00 +7°C° 0 mm 3 m/S 748 mmHg 78%
    01:00 +5°C° 0 mm 3 m/S 748 mmHg 80%
    02:00 +5°C° 0 mm 3 m/S 748 mmHg 81%
    03:00 +5°C° 0 mm 3 m/S 748 mmHg 82%
    04:00 +5°C° 0 mm 3 m/S 748 mmHg 83%
    05:00 +5°C° 0.1 mm 3 m/S 748 mmHg 82%
    06:00 +6°C° 0.1 mm 4 m/S 748 mmHg 81%
    07:00 +7°C° 0.1 mm 4 m/S 748 mmHg 81%
    08:00 +8°C° 0.3 mm 4 m/S 748 mmHg 76%
    09:00 +10°C° 0.3 mm 4 m/S 749 mmHg 71%
    10:00 +11°C° 0.3 mm 4 m/S 749 mmHg 67%
    11:00 +12°C° 0.3 mm 4 m/S 749 mmHg 64%
    12:00 +12°C° 0.3 mm 5 m/S 749 mmHg 61%
    13:00 +13°C° 0.3 mm 5 m/S 749 mmHg 59%
    14:00 +13°C° 0.1 mm 5 m/S 749 mmHg 59%
    15:00 +13°C° 0.1 mm 4 m/S 749 mmHg 59%
    16:00 +13°C° 0.1 mm 4 m/S 749 mmHg 58%
    17:00 +12°C° 0.4 mm 4 m/S 749 mmHg 64%
    18:00 +11°C° 0.4 mm 4 m/S 750 mmHg 69%
    19:00 +10°C° 0.4 mm 3 m/S 750 mmHg 74%
    20:00 +9°C° 0.2 mm 3 m/S 751 mmHg 76%
    21:00 +7°C° 0.2 mm 4 m/S 751 mmHg 77%
    22:00 +6°C° 0.2 mm 4 m/S 752 mmHg 78%
    23:00 +6°C° 0 mm 4 m/S 752 mmHg 79%

    20 September, Freitag

    Zeit Temperatur Niederschläge Wind Luftdruck Luftfeuchtigkeit
    00:00 +5°C° 0 mm 3 m/S 752 mmHg 80%
    01:00 +4°C° 0 mm 3 m/S 752 mmHg 81%
    02:00 +4°C° 0 mm 3 m/S 753 mmHg 81%
    03:00 +4°C° 0 mm 3 m/S 753 mmHg 81%
    04:00 +3°C° 0 mm 3 m/S 753 mmHg 82%
    05:00 +4°C° 0 mm 4 m/S 753 mmHg 79%
    06:00 +4°C° 0 mm 4 m/S 754 mmHg 77%
    07:00 +5°C° 0 mm 4 m/S 754 mmHg 74%
    08:00 +6°C° 0 mm 4 m/S 754 mmHg 68%
    09:00 +8°C° 0 mm 5 m/S 755 mmHg 61%
    10:00 +10°C° 0 mm 5 m/S 755 mmHg 54%
    11:00 +10°C° 0 mm 5 m/S 755 mmHg 51%
    12:00 +12°C° 0 mm 4 m/S 754 mmHg 47%
    13:00 +13°C° 0 mm 4 m/S 754 mmHg 43%
    14:00 +12°C° 0 mm 4 m/S 754 mmHg 44%
    15:00 +12°C° 0 mm 4 m/S 754 mmHg 45%
    16:00 +12°C° 0 mm 4 m/S 753 mmHg 45%
    17:00 +11°C° 0 mm 3 m/S 754 mmHg 50%
    18:00 +10°C° 0 mm 2 m/S 754 mmHg 54%
    19:00 +8°C° 0 mm 2 m/S 754 mmHg 58%
    20:00 +8°C° 0 mm 2 m/S 754 mmHg 60%
    21:00 +8°C° 0 mm 2 m/S 754 mmHg 61%
    22:00 +7°C° 0 mm 3 m/S 754 mmHg 63%
    23:00 +7°C° 0 mm 3 m/S 753 mmHg 65%
    Mehr zeigen